カタログに戻る

NOAA 16 DEB

運用中SSO
NORAD 41705·DEBRIS·🇺🇸 United States

打ち上げ Sep 21, 2000 から Vandenberg Space Force Base

Loading…

次のパス (今後24時間)

TLE

経年Source: Space-Track

元期: Sep 7, 2026, 10:58 UTC

1 41705U 00055PK  26250.45736787  .00000620  00000-0  29950-3 0  9995
2 41705  98.6183 319.6988 0014533  27.2037 332.9899 14.22060932537327

AllMySatでNOAA 16 DEBをリアルタイム追跡

Download on the App Store